This is the latest recevied weather packets stored in our database for station/object W4OA. If no packets are shown the sender has not sent any weather packets the latest 1 day(s).
| Time | Temp. | Humidity | Pressure | Rain* | Wind** | Luminosity | Snow |
|---|---|---|---|---|---|---|---|
| 1778026498 | 23.89° C | 55% | 1007 hPa | 0 mm | 0.45 m/s, 23° | 0 W/m² | - |
| 1778026198 | 24.44° C | 55% | 1007 hPa | 0 mm | 0 m/s | 0 W/m² | - |
| 1778025899 | 24.44° C | 54% | 1007 hPa | 0 mm | 0 m/s | 0 W/m² | - |
| 1778025598 | 24.44° C | 54% | 1007 hPa | 0 mm | 1.34 m/s, 45° | 0 W/m² | - |
| 1778025298 | 24.44° C | 53% | 1007 hPa | 0 mm | 0.45 m/s, 45° | 0 W/m² | - |
| 1778024998 | 24.44° C | 53% | 1007 hPa | 0 mm | 0 m/s | 0 W/m² | - |
| 1778024698 | 24.44° C | 54% | 1007 hPa | 0 mm | 0 m/s | 0 W/m² | - |
| 1778024399 | 24.44° C | 53% | 1007 hPa | 0 mm | 0 m/s | 0 W/m² | - |
| 1778024099 | 25° C | 52% | 1007 hPa | 0 mm | 0 m/s | 0 W/m² | - |
| 1778023798 | 25° C | 52% | 1007 hPa | 0 mm | 0.45 m/s, 23° | 0 W/m² | - |
| 1778023498 | 25° C | 52% | 1007 hPa | 0 mm | 0.45 m/s, 23° | 0 W/m² | - |
| 1778023199 | 25° C | 51% | 1007 hPa | 0 mm | 1.34 m/s, 68° | 0 W/m² | - |
| 1778022898 | 25° C | 52% | 1007 hPa | 0 mm | 0 m/s | 0 W/m² | - |
| 1778022598 | 25° C | 51% | 1007 hPa | 0 mm | 0.45 m/s, 248° | 0 W/m² | - |
| 1778022298 | 25° C | 50% | 1007 hPa | 0 mm | 1.34 m/s, 90° | 0 W/m² | - |
| 1778022000 | 25° C | 50% | 1007 hPa | 0 mm | 1.34 m/s, 23° | 0 W/m² | - |
| 1778021698 | 25.56° C | 50% | 1007 hPa | 0 mm | 0.89 m/s, 113° | 0 W/m² | - |
| 1778021399 | 25.56° C | 49% | 1007 hPa | 0 mm | 0.45 m/s, 45° | 0 W/m² | - |
| 1778021098 | 25.56° C | 49% | 1007 hPa | 0 mm | 0.89 m/s, 68° | 0 W/m² | - |
| 1778020799 | 25.56° C | 48% | 1007 hPa | 0 mm | 1.34 m/s, 23° | 0 W/m² | - |
| 1778020499 | 25.56° C | 49% | 1007 hPa | 0 mm | 0.89 m/s, 90° | 0 W/m² | - |
| 1778020198 | 25.56° C | 48% | 1007 hPa | 0 mm | 1.34 m/s, 68° | 0 W/m² | - |
| 1778019899 | 25.56° C | 48% | 1007 hPa | 0 mm | 0 m/s | 0 W/m² | - |
| 1778019598 | 25.56° C | 49% | 1007 hPa | 0 mm | 0 m/s | 0 W/m² | - |
| 1778019301 | 25.56° C | 48% | 1007 hPa | 0 mm | 0.89 m/s, 113° | 0 W/m² | - |
* Rain latest hour (hover to see other rain measurements)
** Current wind speed in m/s (hover to see current wind gust speed)